Location: La Fredeussais
(48.1780°N, 1.3980°W)
Time: 05:02:55
(UTC+00:00)

STARLINK-2695 - Pass Details

Date: 30 November 2021
Orbit: 546 x 548 km, 53.1° (Epoch: 25 January)

Event Time Altitude Azimuth Distance (km) Brightness Sun altitude
Rises 16:42:52 0° 208° (SSW) 2,705 8.2 -4.9°
Reaches altitude 10° 16:45:18 10° 197° (SSW) 1,816 7.0 -5.3°
Maximum altitude 16:48:50 28° 137° (SE) 1,047 4.9 -5.8°
Drops below altitude 10° 16:52:24 10° 78° (ENE) 1,826 5.6 -6.4°
Enters shadow 16:52:57 - 75° (ENE) 2,016 5.8 -6.4°
